Location: Andrest
(43.3200°N, 0.0641°E)
Time: 14:26:40
(UTC+00:00)

NOSS 3-2 (A) - Pass Details

Date: 01 December 2020
Orbit: 789 x 1419 km, 63.4° (Epoch: 22 January)

Event Time Altitude Azimuth Distance (km) Brightness Sun altitude
Rises 18:31:24 0° 214° (SW) 3,317 6.9 -22.4°
Reaches altitude 10° 18:33:42 10° 215° (SW) 2,428 6.1 -22.8°
Maximum altitude 18:39:17 90° 298° (WNW) 902 3.2 -23.8°
Enters shadow 18:41:26 43° 36° (NE) 1,285 3.8 -24.2°
